Simultaneous Nadir Overpasses (SNOs) Predictions

Prediction of SNOs between NOAA-19 and METOP-C Satellite Orbit:

Table of predicted SNOs for the next 14.0 days since TLE Epoch: 6/16/2022
Index Date (NOAA-19) Time (NOAA-19) Lat,Lon (NOAA-19) SZA (NOAA-19 ) Date (METOP-C) Time (METOP-C) Lat,Lon (METOP-C) SZA (METOP-C ) Distance(km) Time Diff (sec)
1 06/20/2022 16:41:51 80.85, -37.60 58.91 06/20/2022 16:42:54 80.85, -37.47 58.94 2.51 63
2 06/20/2022 17:32:45 -80.85, 129.86 121.08 06/20/2022 17:33:36 -80.85, 129.86 121.06 0.52 51
3 06/20/2022 18:23:50 80.85, -62.77 58.94 06/20/2022 18:24:15 80.86, -62.60 58.97 3.19 25
4 06/20/2022 19:14:44 -80.84, 104.69 121.05 06/20/2022 19:14:57 -80.86, 104.73 121.04 1.55 13
5 06/20/2022 20:05:49 80.84, -87.94 58.96 06/20/2022 20:05:37 80.85, -88.09 58.95 2.64 12
6 06/20/2022 20:56:44 -80.85, 79.15 121.06 06/20/2022 20:56:19 -80.85, 79.25 121.06 1.79 25
7 06/20/2022 21:47:49 80.84,-113.48 58.96 06/20/2022 21:46:59 80.84,-113.57 58.93 1.58 50



Historial Predications of SNOs between NOAA-19 and METOP-C
